NOAA 16 DEB, 41150

Orbit data source: Space-Track

NOAA 16 DEB, 41150 is space debris in SSO originally from a launch on Thu, 21 Sep 2000 UTC launched from the Air Force Western Test Range (AFWTR). Debris objects in space refer to the collection of defunct objects orbiting the Earth. Examples of debris include non-operational satellites, rocket bodies, and fragments generated from explosions, collisions, or faulty payload assembly.

Loading next visibility...
Identifier
41150, 2000-055CH
Orbit
SSO
Last TLE update
10 hours ago
Origin
Manufacturer
Unknown
Mission
Spacecraft
Bus & Motor
Unknown
Mass
Unknown
Launch date (UTC)
2000-09-21 (25 years ago)
Launch vehicle
Unknown
Launch site
Air Force Western Test Range (AFWTR)
Object type
Payload
Rocket body
Debris
Shape & HBR
Unknown
Radar Cross Section
Small (<0.1 m²)

Expand to show TLE details & history

TLE from 10 hours ago
0 NOAA 16 DEB
1 41150U 00055CH  25189.89730131  .00009605  00000-0  17035-2 0  9996
2 41150  98.8077 345.9757 0030772 306.0513  53.7839 14.67171134501702
Epoch: 2025-07-08T21:32Z
TLE epoch observation values (Epoch: 2025-07-08T21:32:06.833Z)
Latitude
-0.00001°
Longitude
95.86153°
Altitude
660.315 km
Speed
7.534 km/s
True Right ascension
23h 03m 54s
True Declination
0° 00' 00"
Sunlit
Object was in full shadow at epoch
Visualization orbit readout
Latitude
38.62619°
Longitude
89.23548°
Altitude
677.069 km
Speed
7.521 km/s
Apparent Right ascension
02h 35m 55s
Apparent Declination
4° 31' 17"
Sunlit
Object is in daylight
Visualization observer readout
Local Sidereal Time
19:41:28
Azimuth
77.714° E
Elevation
-7.433°
Doppler factor
1
Orbital elements
Apogee altitude
688.894 km
Perigee altitude
645.534 km
Semi-major axis
7,045.351 km
Eccentricity
0.00308
Inclination
98.8077°
RAAN
345.9757°
Arg. of periapsis
306.0513°
True anomaly
Unknown
Mean anomaly
53.7839°
Eccentric anomaly
Unknown
Mean motion
3.6702 °/min
Orbital period
98.09 mins
BSTAR
0.0017035
Loading maneuver chart data...
Loading SW <> Apogee altitude chart data...
Loading historical data...
Loading historical data...
Loading historical data...
Loading historical data...
Loading historical data...
Loading historical data...
Loading historical data...

NOAA 16 DEB Visibility forecast

Observer location: undefined°, undefined°

Span
Click to sort rows by Start time (UTC) header in descending order
Start Az.
Max El. time (UTC)
Max El. Az.
Max El.
End time (UTC)
End Az.
4 mins2025-07-09 09:09:57.532Z91.554° ESE2025-07-09 09:11:57.532Z62.553° ENE15.44°2025-07-09 09:13:57.532Z33.876° NE
7 mins2025-07-09 10:45:57.532Z192.356° SSW2025-07-09 10:48:57.532Z281.421° WNW37.332°2025-07-09 10:52:57.532Z336.03° NNW
6 mins2025-07-09 22:40:57.532Z45.14° ENE2025-07-09 22:43:57.532Z103.254° ESE27.912°2025-07-09 22:46:57.532Z154.36° SSE
6 mins2025-07-10 00:17:57.532Z337.618° N2025-07-10 00:20:57.532Z285.74° WNW22.968°2025-07-10 00:23:57.532Z242.067° WSW
|